Location: Ar Ranvel
(48.3000°N, 4.8833°W)
Time: 16:37:52
(UTC+00:00)

Iridium 2 - Pass Details

Date: 16 June 2021
Orbit: 502 x 511 km, 85.5° (Epoch: 30 July)

Event Time Altitude Azimuth Distance (km) Brightness Sun altitude
Exits shadow 23:22:21 41° 171° (S) 750 4.0 -17.1°
Maximum altitude 23:23:34 77° 93° (E) 527 3.6 -17.2°
Drops below altitude 10° 23:27:20 10° 8° (N) 1,730 7.4 -17.3°
Sets 23:29:28 0° 7° (N) 2,618 8.7 -17.4°
